Theta_e
324 324 325 326 327 327 327 329 329 330 329 329 329 329 329 330 331 330 332 333 332 331 330 329 328 327 328 329 328 328 329 329 330 329 332 331 331 333 333 332 330 330 331 330 328 331 327 326 326 324 325 327 326 327 326 326 325 323 323 323 322 321 320 322 324 324 323 320 322 322 323 324 326 324 322 323 323 323 324 324 323 325 324 326 328
323 322 323 324 324 326 328 328 328 327 327 328 327 328 329 330 330 330 330 331 331 331 330 329 328 328 327 328 326 328 329 327 324 327 329 331 331 332 332 331 330 330 332 330 330 328 327 326 325 324 325 325 326 327 326 328 326 324 323 321 319 319 319 322 325 321 317 316 316 315 317 320 322 322 323 324 322 322 321 321 320 322 324 325 326
320 322 323 323 324 325 327 327 327 328 327 327 328 328 329 329 329 328 329 329 329 331 330 328 328 328 328 327 327 325 326 326 327 329 332 330 330 331 331 331 331 331 331 331 329 328 327 326 326 325 325 327 326 326 327 325 324 324 322 322 319 319 320 322 323 318 318 316 316 315 310 309 315 317 319 321 322 321 321 322 322 323 326 326 325
319 320 320 322 324 325 326 326 326 326 326 326 327 327 328 327 327 327 328 328 329 330 330 329 329 328 328 326 324 324 323 326 328 328 330 330 328 330 330 331 331 331 332 332 330 328 326 326 326 325 324 325 325 326 326 324 322 321 320 320 322 319 313 318 321 322 318 319 312 309 310 309 306 310 313 317 320 320 321 322 324 324 325 325 324
319 319 320 322 323 324 325 325 325 325 325 325 326 326 327 326 327 327 327 327 328 330 329 329 329 326 324 323 324 324 325 324 324 323 325 329 329 328 329 330 331 330 330 330 330 327 326 326 326 326 325 324 326 325 325 324 323 322 321 321 320 319 314 313 318 322 321 319 315 311 308 307 304 309 310 310 314 314 315 320 324 322 323 323 324
320 319 320 322 323 324 324 324 324 325 325 326 327 327 327 326 326 326 326 325 327 328 328 328 327 323 320 321 321 321 320 321 321 322 321 325 326 324 327 329 329 328 328 328 329 328 326 326 326 327 325 326 326 326 325 324 323 322 322 322 319 317 319 316 317 320 321 322 317 313 312 309 311 312 307 304 310 311 313 318 319 319 319 321 322
319 319 319 321 322 322 322 323 324 324 325 326 326 326 326 326 326 325 325 325 326 327 328 327 324 321 321 321 321 321 320 320 322 321 323 322 324 325 326 324 326 327 326 327 328 328 326 325 325 326 327 326 328 327 326 325 325 325 324 321 320 320 319 316 318 317 318 318 320 321 323 318 317 312 305 305 304 307 310 312 313 315 317 320 321
319 318 318 321 322 322 322 322 322 324 325 325 325 325 325 325 325 324 324 324 325 326 327 326 322 321 320 321 322 321 320 320 320 320 320 322 322 323 324 322 324 325 327 325 326 327 326 325 324 324 326 326 327 326 326 326 325 325 323 321 321 320 319 319 317 317 319 317 319 318 318 319 317 314 310 308 305 304 305 309 310 310 312 315 320
320 318 319 320 321 322 323 322 322 323 324 324 325 325 325 325 325 323 323 323 324 326 326 324 322 321 321 322 321 321 320 320 320 321 319 319 318 318 321 321 322 323 325 326 324 327 327 326 324 323 323 324 327 326 324 326 326 324 323 321 321 320 318 317 319 318 317 317 317 315 317 316 316 315 313 310 305 305 303 305 305 307 309 310 316
320 320 320 320 322 322 323 323 322 323 324 325 325 325 325 324 323 323 322 322 324 324 325 325 323 323 322 322 320 319 319 319 318 317 316 317 318 317 318 318 318 319 319 320 320 322 323 325 326 325 325 324 326 324 323 324 324 324 324 322 320 320 319 319 319 318 319 319 318 318 315 313 313 312 310 308 308 307 305 305 304 305 304 306 312
320 319 320 321 322 322 322 322 322 323 324 324 324 324 324 324 323 323 323 323 324 324 325 324 324 323 322 321 319 318 318 317 316 315 315 316 317 315 316 318 319 320 319 318 319 320 320 321 318 318 321 326 326 323 323 324 323 324 323 322 321 320 320 319 318 318 319 319 318 318 317 315 312 310 310 310 306 304 304 304 304 304 306 307 309
319 319 318 319 320 321 321 320 320 322 323 323 323 323 323 323 323 323 323 323 324 325 325 323 323 321 321 319 319 318 317 316 315 314 315 316 315 315 316 318 317 318 318 317 318 320 322 319 320 319 321 322 323 324 324 324 324 324 324 322 321 320 320 321 319 319 318 318 317 317 316 316 314 314 314 312 308 306 306 304 303 304 305 305 308
319 318 318 319 320 320 319 320 321 321 322 323 323 323 324 324 324 323 323 323 325 324 324 322 322 320 320 319 318 318 317 316 314 313 314 315 315 316 315 316 315 317 316 318 316 318 319 318 318 318 319 319 321 322 323 324 324 324 324 323 322 321 321 320 319 319 319 318 316 315 317 317 315 315 316 310 308 307 306 303 303 302 301 302 303
318 318 319 320 321 321 320 321 322 322 322 323 323 323 324 325 324 324 323 324 324 323 322 321 321 320 320 319 318 318 317 317 315 314 314 316 316 316 315 316 315 315 315 316 316 319 318 319 318 316 317 319 321 321 322 322 322 323 321 321 320 320 320 319 317 316 316 316 317 316 315 315 314 316 315 310 307 306 304 304 303 300 300 302 298
317 317 319 320 321 321 322 323 323 324 323 323 323 323 324 324 324 323 324 323 322 321 320 320 320 320 319 319 318 318 318 317 316 316 315 315 315 316 315 316 315 313 314 314 317 317 316 317 317 317 318 319 319 319 322 320 321 322 321 319 319 318 318 318 315 316 316 316 313 313 312 312 312 315 315 311 309 308 307 305 303 300 297 296 296
317 318 319 321 322 323 323 324 324 324 323 323 323 323 323 324 323 324 324 323 322 320 318 319 319 319 318 317 317 318 319 318 317 316 315 315 315 316 316 316 315 315 315 316 316 317 316 317 316 316 317 318 317 318 318 319 319 318 316 315 313 316 313 311 310 310 309 308 308 307 309 308 309 311 315 312 310 309 307 305 304 303 298 294 295
317 318 320 321 322 323 324 324 323 323 324 324 324 324 324 323 323 323 323 323 322 320 319 319 319 318 318 318 317 317 317 316 316 315 314 315 316 317 317 316 316 317 317 315 314 314 315 315 314 314 316 316 316 315 315 314 314 314 312 311 310 311 311 308 307 307 307 308 308 307 308 308 308 309 313 314 311 308 307 304 303 303 300 296 292
318 319 320 322 323 323 324 324 323 324 325 324 323 323 325 325 325 325 324 323 323 322 321 320 319 318 318 318 318 317 316 316 315 315 316 317 315 316 316 316 316 316 316 316 314 315 316 318 314 313 313 313 313 312 313 312 312 311 310 310 309 309 311 310 310 310 309 309 309 308 309 309 308 309 310 311 309 308 306 306 303 303 301 298 294
317 319 320 320 321 322 323 323 323 324 325 325 324 325 325 325 326 326 325 325 324 323 322 322 320 321 321 319 318 316 316 316 317 318 317 316 315 315 315 315 315 315 316 313 313 313 313 312 312 310 311 311 311 311 311 310 310 309 309 309 309 310 310 309 308 310 309 309 309 309 309 308 307 309 310 310 310 309 308 307 306 305 302 300 298
316 317 319 320 321 321 322 321 321 322 323 324 323 323 324 324 324 324 323 323 323 323 323 322 322 322 321 319 316 317 317 318 317 316 316 315 315 314 314 313 314 313 311 311 311 312 311 310 309 309 309 309 310 309 309 309 309 309 310 310 309 311 310 310 309 309 311 309 308 308 307 308 307 308 309 309 308 307 308 308 308 305 302 302 302
314 316 317 319 319 319 319 319 320 321 321 319 319 319 321 323 323 322 322 322 323 324 324 323 323 322 320 317 316 317 317 318 316 316 315 314 314 314 313 313 312 311 310 310 311 310 310 309 308 309 308 308 308 307 307 307 308 308 308 309 308 310 310 308 309 308 309 308 309 308 307 308 307 307 306 307 308 308 308 308 307 305 304 304 303
314 314 315 317 318 319 320 320 321 322 322 319 321 323 324 323 324 322 322 322 321 322 323 324 323 322 319 317 317 317 317 317 316 315 315 314 313 313 312 312 311 310 310 310 309 309 309 308 307 307 307 306 307 306 306 307 308 307 306 310 309 309 308 307 307 307 307 309 306 306 307 306 306 306 305 306 306 307 308 307 305 306 304 304 304
313 314 315 316 317 318 320 320 320 321 321 321 321 323 323 322 322 321 320 321 322 322 321 322 323 321 318 317 317 317 317 316 315 315 315 315 313 312 312 311 311 310 310 309 308 308 308 307 307 307 307 305 306 305 306 307 306 306 307 307 309 308 308 308 307 307 308 306 306 306 306 307 309 307 307 306 306 306 307 307 306 306 305 305 305
312 313 315 316 316 317 318 319 320 320 319 318 319 321 321 321 321 321 320 321 322 322 322 320 318 319 318 316 316 316 316 316 315 315 315 314 314 313 312 311 311 310 310 308 307 307 307 306 307 306 306 306 306 307 306 306 306 306 307 308 307 307 308 308 308 308 307 307 307 307 306 307 308 308 307 306 307 308 307 306 306 306 306 307 305
310 311 312 313 314 315 316 317 317 318 318 317 318 317 320 319 319 320 320 321 320 321 320 319 319 318 319 318 317 316 315 315 314 315 315 314 313 313 312 312 311 309 309 308 308 306 306 306 307 306 305 305 306 307 306 306 306 307 308 308 307 307 307 307 308 307 310 307 307 307 308 308 308 308 307 308 308 308 308 308 306 305 306 306 307
308 310 311 312 313 314 315 316 317 318 318 317 317 317 317 316 316 317 317 317 318 319 319 318 318 318 318 318 318 318 317 314 315 315 315 314 313 313 312 312 311 309 308 309 310 307 308 306 305 305 305 305 307 306 306 307 308 308 308 307 307 307 307 307 307 308 308 307 307 308 308 308 308 309 308 308 308 308 308 308 307 307 307 306 305
296 298 300 301 302 304 308 313 314 315 316 316 316 316 315 315 315 317 318 317 317 318 318 318 318 318 318 318 318 318 317 317 315 315 315 314 313 312 312 312 311 309 309 309 308 308 308 306 306 305 306 307 307 307 306 307 308 308 308 308 307 307 307 307 306 308 307 307 307 307 307 308 309 309 309 308 308 307 309 308 309 308 308 306 305
294 294 295 295 297 298 298 300 306 314 315 315 315 316 315 315 315 317 317 318 319 318 317 317 317 317 317 316 316 317 318 318 318 317 317 316 315 313 313 311 312 310 310 309 308 309 308 307 306 306 307 307 308 307 306 307 308 308 307 307 307 308 308 307 306 307 308 308 308 308 308 308 309 309 309 309 310 309 307 307 307 308 306 306 305
292 293 293 294 294 296 296 298 299 301 305 312 314 314 314 315 315 315 316 316 316 315 315 316 315 315 315 316 316 317 317 318 318 319 318 317 316 316 315 313 312 311 312 311 309 308 308 308 307 306 306 308 309 309 309 308 308 308 307 307 307 309 308 307 306 307 309 309 309 309 309 309 312 316 311 311 311 311 311 309 306 306 305 305 303
291 292 292 293 294 294 295 295 296 297 298 299 300 304 312 315 315 315 314 315 315 315 316 316 315 315 315 316 316 316 316 315 317 317 317 317 316 316 315 314 313 312 310 311 309 309 307 308 307 306 306 308 309 310 311 307 307 310 308 310 309 309 308 308 310 309 309 310 311 310 312 317 315 313 309 305 304 306 310 312 310 307 307 306 306
291 292 292 293 294 294 295 295 295 296 296 297 298 300 304 310 314 315 315 316 316 314 314 314 314 315 316 316 316 316 315 315 315 315 315 316 316 316 315 315 314 314 312 310 311 310 307 307 308 307 307 308 309 310 305 300 300 304 310 310 309 309 308 311 311 311 311 311 309 309 309 313 312 311 305 300 300 300 301 303 305 308 310 308 307
292 292 292 292 293 294 295 295 296 296 296 297 298 299 300 302 303 304 304 305 305 305 307 310 313 314 314 314 313 314 314 314 315 315 315 315 315 315 314 314 313 315 314 313 313 310 309 307 307 306 307 309 309 307 301 299 300 300 306 311 310 310 311 311 311 312 312 311 311 310 308 309 308 307 305 301 299 297 296 296 295 297 297 297 302
291 292 293 293 293 294 295 295 296 296 296 297 297 298 298 299 299 300 300 300 299 299 299 299 300 301 302 305 310 314 313 313 312 313 313 313 312 313 313 314 313 313 312 313 311 311 311 309 308 307 306 308 308 305 301 298 298 299 301 308 312 311 311 311 312 312 311 311 311 310 310 310 312 315 311 303 301 298 296 294 295 294 294 294 294
292 291 294 295 295 295 295 296 297 297 298 298 298 297 298 299 299 300 299 299 299 298 298 298 298 298 299 300 301 303 305 308 310 310 311 311 312 312 312 311 310 311 310 311 309 311 309 309 308 307 306 305 305 303 298 298 297 297 297 302 313 312 312 312 313 313 312 312 312 311 311 310 309 311 309 305 302 300 298 296 296 297 296 295 294
294 294 294 295 295 295 296 296 297 298 298 298 298 298 298 298 298 298 298 298 298 298 298 298 298 298 298 299 299 300 300 302 304 304 304 304 306 308 309 309 308 310 310 311 310 310 309 308 309 308 307 308 308 303 296 296 297 296 296 296 307 312 312 312 313 313 313 313 313 313 312 311 310 310 311 308 305 301 299 299 297 298 297 298 297
294 294 294 295 296 296 295 295 298 298 298 299 298 299 298 297 298 297 297 298 298 298 297 297 297 297 298 298 298 298 298 298 299 299 299 300 301 302 303 305 306 306 307 307 308 309 309 312 312 310 309 309 311 302 296 295 296 296 297 304 307 310 311 311 311 312 312 313 313 313 311 311 309 309 307 302 303 304 303 302 301 299 296 294 293
295 295 295 296 297 297 297 297 297 297 296 297 298 299 299 298 298 298 297 297 297 297 297 298 297 297 298 298 298 298 298 297 297 297 297 297 298 298 298 301 300 300 302 304 306 307 307 307 308 310 310 310 309 305 297 295 295 295 298 307 310 311 312 311 310 310 310 311 313 313 312 311 310 308 303 298 299 301 305 304 303 299 296 294 293
293 295 296 297 297 298 299 298 297 296 296 297 298 298 297 297 297 297 297 297 296 296 297 297 297 297 297 297 298 298 297 297 296 296 296 296 296 296 297 298 297 298 298 300 303 304 306 306 306 306 307 308 309 307 299 296 295 294 299 308 308 310 309 309 308 309 309 309 310 311 313 311 310 308 299 295 296 302 305 304 301 298 296 294 293
295 295 295 297 297 299 298 297 297 296 298 299 299 298 297 296 296 296 296 296 296 297 296 296 295 296 296 297 297 297 297 297 297 296 296 296 295 296 296 296 296 296 296 297 299 300 300 300 303 304 309 309 309 307 301 297 296 295 298 304 305 307 307 305 307 307 306 306 303 304 307 309 310 304 295 294 295 302 308 305 302 299 297 295 294
298 298 298 299 299 296 295 295 295 295 297 297 297 298 298 296 296 295 294 294 295 296 296 297 297 297 298 298 297 297 298 297 297 296 296 296 296 295 295 296 295 296 296 296 297 296 297 298 298 301 303 305 307 309 308 301 298 296 296 305 305 305 305 305 305 307 308 305 301 300 300 297 299 298 294 294 295 298 307 306 303 300 298 297 295
293 294 296 295 296 295 295 295 295 296 297 297 296 296 296 296 294 294 294 295 296 296 296 296 297 297 298 298 298 297 297 298 298 297 297 296 296 296 296 296 296 296 296 296 296 297 297 297 298 299 300 301 305 307 308 301 300 299 296 298 306 306 306 306 305 305 305 306 303 299 296 294 295 294 293 293 294 296 300 305 303 301 300 299 296
294 294 295 294 294 295 295 295 295 296 297 296 296 295 295 295 294 294 294 296 296 296 296 296 296 296 296 296 296 296 297 298 297 297 295 295 295 296 296 295 294 294 293 293 293 294 295 295 296 297 298 298 301 303 305 303 301 300 298 296 303 306 307 307 305 305 305 304 304 302 298 294 292 293 293 293 294 294 297 303 303 297 294 293 297
292 292 293 294 294 294 294 294 295 294 294 294 294 293 293 293 293 293 295 295 295 295 295 295 295 295 295 295 295 294 295 296 295 295 294 293 293 293 293 293 293 293 292 292 292 292 292 292 293 294 294 296 297 300 298 300 299 298 299 297 296 301 299 306 307 306 305 306 303 299 297 294 291 292 293 293 294 294 296 299 295 293 292 292 295
292 293 293 294 294 294 294 294 293 293 293 293 293 292 292 292 291 292 294 294 294 295 294 294 294 294 293 294 294 294 294 293 294 293 293 292 292 292 293 293 292 292 291 291 291 291 291 291 291 291 293 294 296 297 297 296 297 297 297 297 296 295 297 304 307 308 307 304 299 297 295 291 291 291 291 291 291 293 296 291 292 292 292 294 298
291 292 292 292 292 291 292 292 292 293 292 292 292 292 292 291 291 292 293 293 293 294 293 292 292 292 292 292 292 292 292 293 293 292 292 292 292 292 292 292 291 291 291 290 290 291 290 289 289 290 290 292 294 296 297 297 296 297 297 296 295 294 293 294 303 307 305 302 297 294 292 290 291 291 290 290 290 291 290 292 292 292 295 298 297
292 291 291 290 291 292 291 291 291 292 292 292 292 292 291 291 292 292 292 292 292 292 291 291 290 290 290 291 290 290 291 291 291 292 292 291 291 291 291 291 290 290 290 290 289 289 289 289 288 289 289 291 293 294 295 297 297 298 297 296 293 293 294 294 296 303 298 296 293 292 290 290 291 291 293 295 294 293 291 292 292 295 298 296 295
291 291 290 290 290 290 290 291 290 291 292 292 292 292 292 291 291 291 291 291 291 290 290 290 289 290 289 289 290 290 289 290 289 290 290 291 290 290 290 289 290 289 289 288 289 288 288 288 288 289 289 290 291 292 294 295 297 298 297 296 295 295 293 293 296 299 297 295 292 292 291 291 293 292 294 294 294 291 291 292 293 294 294 294 293
290 290 289 288 289 289 290 290 290 289 290 291 291 291 292 292 292 292 291 291 291 290 290 289 290 289 289 289 289 288 289 288 288 288 289 289 289 289 289 289 289 289 288 288 287 287 288 288 288 288 289 289 290 291 292 293 296 298 298 296 294 295 296 296 298 300 297 295 293 291 291 293 292 293 292 291 291 290 289 290 291 290 290 291 292
290 289 289 289 290 290 289 290 290 290 290 290 290 290 292 291 291 291 291 291 290 289 289 289 290 290 290 290 290 289 289 288 289 289 288 288 289 290 290 289 289 289 289 289 288 288 288 288 288 288 288 288 288 289 292 292 292 291 292 296 296 296 297 295 296 293 292 292 292 292 290 290 289 287 287 288 289 289 287 289 290 289 289 290 290
291 291 290 291 291 290 290 290 290 290 290 290 290 290 291 291 291 291 290 290 289 288 288 288 288 289 289 289 290 289 289 289 289 289 290 290 289 291 290 289 289 291 290 290 289 287 289 288 288 288 288 288 288 291 291 290 291 290 291 291 293 294 294 295 291 290 291 289 289 290 289 288 287 287 286 286 285 286 286 286 285 287 287 288 288
289 289 290 290 291 292 291 290 290 290 290 290 290 291 290 291 290 290 288 288 288 288 287 286 287 288 288 289 289 289 290 290 291 291 291 290 290 291 290 290 290 290 290 289 289 289 289 289 289 288 289 290 289 289 289 290 290 290 290 291 292 292 292 290 290 290 288 287 287 288 287 286 286 287 286 285 285 286 286 286 286 286 286 287 287
Wind_Speed
11 12 12 14 13 11 11 13 11 11 13 12 11 10 11 11 9 11 10 10 10 8 7 7 6 5 3 6 6 5 5 3 4 3 4 4 4 4 3 4 3 3 3 4 4 4 4 4 4 4 3 4 5 4 4 4 5 5 5 4 6 5 2 1 1 4 7 6 6 5 5 3 1 1 1 1 2 1 1 2 2 3 3 5 6
12 11 11 10 11 13 12 11 15 17 12 11 12 11 10 9 10 8 7 7 8 9 8 6 5 6 6 6 3 5 5 5 3 4 4 3 3 4 4 4 4 4 4 4 3 4 5 5 5 4 4 4 3 3 3 4 5 5 5 4 2 5 2 2 3 2 2 5 6 3 3 4 2 3 3 4 2 1 2 2 1 2 4 4 5
9 12 11 11 14 17 13 12 15 19 17 14 11 11 10 9 7 6 6 7 7 8 8 7 4 4 4 3 5 3 2 3 4 3 5 5 4 5 5 5 5 4 5 5 4 4 4 5 4 5 4 4 5 4 4 4 4 5 5 6 5 2 3 0 0 1 4 3 4 6 1 3 4 4 1 2 3 1 2 2 1 2 3 3 5
16 15 15 15 14 14 12 12 12 13 14 12 11 12 10 8 8 8 7 8 8 7 7 5 6 4 3 5 5 5 3 2 4 4 6 6 4 4 4 5 5 5 6 6 4 4 5 5 5 4 4 4 5 5 4 4 4 4 4 4 7 6 2 1 1 0 3 7 3 2 3 4 2 1 1 2 3 1 2 1 2 3 3 3 5
17 15 16 15 14 14 13 12 13 14 13 13 13 12 9 11 10 10 10 9 9 9 7 6 6 4 3 4 5 5 4 4 5 4 4 4 5 3 4 4 4 4 4 5 5 4 3 4 4 4 4 4 4 5 5 5 4 4 4 5 5 7 4 3 1 0 1 0 6 5 3 1 3 2 2 3 4 3 1 4 2 4 3 3 5
18 17 18 19 17 13 11 12 13 11 12 12 12 11 11 10 10 8 8 7 8 8 9 8 7 7 8 9 8 6 6 6 5 6 4 5 6 3 3 3 3 3 3 4 4 4 4 3 3 4 4 4 5 5 4 3 4 4 5 5 4 3 7 5 3 1 1 1 2 2 4 4 7 5 4 2 3 3 2 4 4 4 3 4 5
11 11 11 14 14 13 13 14 14 14 11 9 9 9 10 10 9 8 8 7 6 8 9 8 7 7 10 11 9 9 8 4 4 3 5 4 5 6 5 3 4 4 3 3 4 3 3 3 3 3 3 3 4 6 6 6 5 4 3 4 4 5 4 6 6 4 1 1 1 0 0 1 7 7 3 4 5 4 5 4 4 3 4 6 6
14 14 13 11 15 15 16 14 13 13 11 8 8 8 9 9 8 6 5 5 5 6 8 9 9 8 7 8 8 8 8 7 5 4 3 5 5 5 4 3 3 4 4 3 4 3 3 3 2 3 3 3 3 5 5 5 5 2 3 2 3 4 5 7 6 5 6 3 1 1 3 3 3 4 4 6 6 7 4 4 3 4 6 5 5
14 13 13 14 16 15 14 13 11 11 11 11 10 9 8 7 7 5 5 4 6 7 7 7 7 7 7 8 7 5 7 6 4 3 4 4 5 3 4 3 2 2 3 4 3 3 3 3 3 3 3 3 3 4 3 5 6 6 4 4 4 3 2 3 6 6 5 5 2 2 3 4 4 4 4 3 5 8 3 5 3 3 6 5 5
9 11 14 15 15 14 12 13 14 14 10 9 9 9 9 8 7 7 5 4 4 5 5 4 4 5 7 7 9 7 7 5 4 4 4 4 5 4 4 3 3 2 1 2 3 2 3 3 4 4 4 3 3 3 3 4 4 5 6 5 4 4 2 3 5 6 5 4 3 5 3 3 4 3 2 4 4 3 8 7 5 8 6 1 2
11 10 9 9 7 7 8 12 11 11 9 9 9 9 9 9 8 7 5 4 4 5 5 4 5 5 7 8 10 10 9 8 7 5 4 4 5 4 4 5 4 5 4 2 3 4 3 2 3 3 4 5 5 4 4 5 5 5 5 4 4 5 4 3 3 3 4 5 3 5 7 8 8 6 6 4 4 4 5 4 3 3 8 8 1
10 9 8 8 8 7 5 8 8 10 9 9 8 9 9 8 8 8 6 5 4 4 4 5 6 5 7 8 10 10 10 8 9 8 7 7 5 4 2 5 4 5 4 4 4 4 5 4 3 4 4 5 5 5 5 5 5 5 5 5 5 4 4 5 5 5 4 5 4 4 4 3 3 5 6 6 7 7 8 7 6 3 4 4 4
9 9 8 8 9 10 9 8 7 8 9 10 10 9 9 8 8 10 8 6 6 4 5 6 6 7 8 9 8 7 7 8 8 7 6 7 6 5 4 5 5 5 3 4 4 4 5 6 4 5 4 3 4 5 4 4 5 5 5 5 4 5 5 5 6 6 6 6 6 2 3 3 4 3 5 6 5 6 8 6 1 2 6 5 3
7 7 8 9 9 9 8 9 9 8 8 10 10 9 9 8 9 10 9 7 6 5 6 6 7 7 7 9 8 7 7 8 7 8 5 6 6 6 5 5 5 4 4 4 3 4 4 4 4 4 4 4 4 4 4 4 4 4 4 4 4 3 4 4 4 4 4 4 4 5 3 3 2 3 5 7 7 7 7 9 5 2 3 6 3
4 6 7 9 9 10 10 10 9 9 9 7 7 7 8 9 9 9 7 6 6 6 6 7 8 7 6 7 7 6 7 7 6 6 6 6 5 5 4 5 5 3 4 3 3 4 4 4 4 5 4 4 4 4 3 3 4 5 4 4 4 3 3 3 3 4 4 4 3 4 4 3 5 4 6 5 7 7 8 8 8 7 3 3 3
5 7 8 9 9 10 10 10 10 9 8 6 6 5 5 6 7 8 8 7 7 6 5 7 7 7 6 7 7 6 5 5 5 5 4 5 5 5 4 4 3 3 2 4 3 4 4 4 4 4 4 4 4 4 4 4 4 5 4 4 4 3 5 4 4 4 4 5 5 3 4 2 2 6 6 7 7 6 6 5 7 9 10 4 2
5 6 8 10 10 9 9 10 9 7 7 7 6 6 7 7 7 7 6 6 7 6 6 5 6 6 6 7 6 5 6 6 6 5 5 4 4 4 5 4 4 4 4 3 4 3 3 4 4 4 4 4 4 4 4 4 4 5 5 4 4 2 5 5 4 6 5 6 5 5 5 4 2 4 7 7 6 5 5 5 6 10 8 9 5
6 6 7 7 8 9 9 9 8 8 8 7 5 5 6 7 8 9 7 8 6 6 6 5 6 7 6 6 5 5 5 5 5 5 4 5 4 4 4 5 4 4 5 3 4 4 4 4 5 4 4 4 4 4 5 5 5 5 4 4 3 4 5 3 3 5 4 4 4 3 4 5 3 5 7 6 7 7 7 7 5 3 8 10 6
5 8 8 7 8 8 9 9 7 6 7 5 3 4 6 5 6 7 8 7 7 7 6 5 5 6 5 6 6 5 5 5 4 5 5 6 6 5 5 4 3 4 5 4 4 4 4 4 4 4 4 4 4 5 5 5 5 6 4 5 3 5 6 5 3 5 3 5 5 5 5 6 4 7 7 6 6 7 7 6 5 4 3 7 8
5 6 6 7 8 8 8 8 7 6 4 3 3 2 5 5 7 6 6 5 7 8 8 8 6 6 6 6 5 5 5 6 5 7 7 6 6 6 5 4 4 3 4 4 4 4 4 4 3 4 4 4 5 4 5 5 5 5 5 6 4 6 6 5 3 2 3 4 5 6 4 5 4 6 6 6 5 4 5 6 6 6 4 4 7
5 5 6 7 7 6 6 5 5 5 5 7 5 2 1 4 6 7 11 9 8 8 8 7 6 6 8 7 7 6 6 6 5 6 7 6 5 5 5 4 4 4 4 4 4 4 4 4 4 4 4 4 5 4 4 4 5 5 4 5 4 6 6 4 4 4 4 4 5 5 4 3 3 6 6 6 6 5 4 6 7 7 6 5 7
6 5 5 5 6 6 5 5 5 6 8 9 7 7 6 7 7 8 8 4 5 5 3 7 5 7 7 8 7 6 6 6 7 5 6 5 5 5 5 4 5 4 4 4 4 3 3 4 4 3 4 4 4 4 4 4 5 5 4 4 4 5 5 4 4 5 4 4 4 5 4 3 3 5 4 5 6 6 7 7 6 8 7 6 5
7 6 6 6 5 5 5 6 6 6 6 6 6 5 5 4 5 5 4 7 9 9 9 8 3 7 7 7 8 7 7 7 8 5 6 6 5 4 4 6 4 4 3 5 4 4 4 3 3 3 3 4 4 4 4 4 4 5 5 4 4 5 6 6 5 5 5 4 5 4 4 3 4 6 5 4 3 4 4 6 5 5 7 5 3
8 7 7 6 6 5 5 6 6 5 5 6 4 3 4 3 3 9 11 10 9 7 7 8 11 12 7 4 8 8 9 9 8 6 7 5 5 4 4 5 4 4 4 4 4 4 4 4 3 2 2 3 3 3 3 3 5 5 5 5 4 4 5 5 6 6 5 5 6 5 4 5 5 6 4 5 4 5 5 5 5 3 5 5 4
10 9 9 9 8 7 6 6 6 6 6 7 7 3 5 4 5 8 10 10 9 8 9 9 9 9 6 9 9 2 7 7 7 6 7 6 6 5 4 5 4 4 4 4 3 4 4 4 4 4 3 3 4 4 4 3 3 4 5 4 4 4 4 5 6 6 6 6 5 5 5 5 6 7 4 5 5 6 5 5 4 3 3 3 3
10 10 11 11 9 9 8 7 7 7 8 7 6 4 3 4 5 5 8 8 7 8 10 10 10 9 7 8 6 4 8 3 3 6 8 7 7 6 5 5 5 5 4 4 5 4 5 5 4 4 4 4 3 4 4 5 4 4 4 4 4 4 5 5 5 5 5 5 5 5 5 6 6 7 6 5 5 5 5 6 6 4 4 3 4
13 13 12 12 12 11 9 6 6 7 8 8 8 8 6 5 5 5 5 4 5 8 10 10 10 11 10 10 8 9 9 7 3 1 1 2 5 5 5 6 4 5 4 4 3 5 4 6 5 4 4 4 4 4 4 4 4 5 5 5 5 5 5 4 5 5 4 4 4 4 4 4 6 6 7 6 5 5 5 6 6 6 5 5 4
12 14 14 13 12 12 12 10 8 6 7 7 7 6 6 7 7 6 7 7 5 7 8 8 9 8 9 8 6 6 8 10 9 7 4 4 3 3 4 4 3 4 4 5 4 5 6 5 6 5 5 4 5 5 4 4 4 5 5 5 5 5 5 5 5 5 5 5 5 4 4 4 4 4 5 5 6 6 4 5 4 4 5 6 5
14 13 12 11 12 11 12 11 11 12 11 10 8 7 7 6 6 5 3 5 5 9 7 6 6 7 5 5 5 5 2 0 5 9 6 3 3 4 4 4 4 4 5 5 5 5 6 5 5 6 5 4 6 6 5 5 5 5 5 5 5 5 5 5 4 4 3 4 4 4 4 4 4 6 8 8 7 7 6 5 4 4 4 4 4
12 12 11 12 12 12 11 12 13 12 12 11 9 7 6 5 6 7 8 6 6 6 8 6 7 6 4 5 5 4 4 3 3 6 5 5 4 4 3 2 4 5 5 5 6 4 5 6 6 5 6 5 6 5 8 11 9 7 5 5 5 4 5 5 5 4 4 4 4 4 4 7 8 9 9 9 8 8 7 7 7 5 5 4 5
11 11 10 11 12 12 13 13 13 13 12 10 7 6 7 8 8 8 8 7 8 5 6 6 7 5 5 5 5 4 3 3 4 5 5 6 5 4 3 3 2 0 3 3 4 5 4 5 6 6 6 6 6 6 12 13 12 12 8 6 6 5 5 5 6 7 6 5 4 4 4 5 5 6 4 6 7 8 8 6 4 2 2 5 6
11 10 9 11 12 11 11 10 11 12 12 11 10 10 11 10 10 11 10 9 9 9 9 8 7 6 6 6 4 4 4 5 5 5 5 5 4 4 5 5 3 4 2 2 1 2 3 4 3 4 6 7 7 9 12 14 14 14 11 7 5 5 5 6 6 7 6 6 6 5 4 4 4 4 4 3 3 4 5 6 6 6 4 3 2
10 10 9 10 11 10 10 10 10 9 9 9 8 11 11 9 10 8 9 11 11 11 11 10 9 10 9 7 6 6 6 5 4 5 5 4 4 3 4 5 7 6 3 4 3 3 1 1 4 4 4 5 5 9 9 11 14 15 15 11 7 7 7 6 6 6 6 6 5 5 5 4 3 6 4 3 4 3 3 4 5 5 3 2 2
10 10 8 8 9 9 9 9 9 9 9 8 8 9 8 8 8 9 10 10 11 10 10 10 10 10 9 9 9 9 7 6 5 4 4 2 2 2 3 3 1 3 3 5 3 3 2 1 0 1 3 3 4 4 5 9 12 12 12 10 7 8 8 8 8 8 7 7 7 7 7 6 4 4 4 5 4 4 4 3 2 1 1 1 1
8 8 9 10 12 11 11 12 11 10 9 9 10 8 8 11 10 11 9 10 10 11 11 10 11 10 10 10 10 10 9 8 8 7 7 8 6 5 4 1 0 3 5 6 4 3 1 3 4 3 3 5 4 4 6 7 9 12 11 8 5 4 6 7 8 8 9 9 9 8 8 8 6 5 6 7 6 6 5 4 3 2 1 0 0
6 7 6 8 8 8 6 6 5 8 8 8 9 7 10 10 10 11 10 10 10 11 10 10 11 10 10 9 9 9 9 8 8 8 9 8 8 7 8 7 6 5 3 2 2 1 2 4 6 5 7 6 6 7 7 7 8 10 11 7 7 6 6 6 7 7 7 8 8 9 8 8 7 7 10 14 12 8 7 7 6 4 2 3 2
5 5 6 5 6 6 3 3 3 3 4 5 4 4 7 9 11 10 11 11 11 11 10 9 9 8 8 8 8 9 9 8 8 9 9 8 8 8 8 6 7 6 6 6 7 5 2 3 5 6 7 6 6 8 9 9 9 8 6 6 7 7 7 7 7 7 7 7 7 8 9 9 8 8 11 14 13 13 7 7 6 5 3 3 1
5 3 3 3 3 3 2 3 4 4 3 2 3 5 9 10 9 11 13 11 11 10 9 9 9 8 8 7 6 8 9 7 7 7 7 6 5 5 6 5 6 6 6 6 6 6 6 4 2 3 4 5 7 8 10 10 10 10 8 6 7 7 6 6 6 6 6 6 7 12 10 7 7 7 8 11 11 9 6 7 7 7 6 5 4
4 3 3 1 1 1 2 4 6 9 6 5 6 7 9 9 9 9 7 8 9 8 8 8 8 7 7 8 8 9 8 7 6 6 5 5 5 4 4 4 4 3 4 4 4 6 5 3 3 4 6 5 7 9 10 11 11 11 8 5 6 6 7 6 6 6 6 6 4 3 6 7 7 7 12 12 15 13 8 9 9 8 8 8 7
3 2 1 0 1 3 6 7 8 7 4 5 5 8 9 8 7 6 7 6 4 4 3 4 6 8 8 8 7 7 7 7 8 7 7 7 4 4 6 5 4 4 5 3 3 4 5 6 4 3 3 4 5 7 9 12 11 12 12 8 6 6 7 7 7 6 6 6 5 5 5 7 9 11 13 15 15 15 9 8 8 9 8 7 5
6 5 3 4 5 6 6 6 4 4 5 5 6 7 7 5 5 6 6 5 4 5 6 6 7 8 9 9 8 8 8 8 7 7 6 5 6 6 6 6 6 6 5 5 5 4 4 5 6 5 4 4 4 7 9 13 13 12 12 11 7 9 8 8 8 8 7 7 5 6 5 6 10 11 12 12 13 16 11 9 10 11 10 8 10
7 8 7 6 6 6 7 7 7 6 5 5 5 7 5 5 6 8 7 7 8 7 8 8 9 8 8 7 7 7 6 6 6 6 6 6 6 5 4 5 6 6 6 6 6 6 5 5 5 5 5 5 6 7 6 12 16 16 13 13 9 9 11 9 8 8 8 8 8 8 8 9 11 12 13 14 14 13 12 8 8 9 10 16 13
8 8 6 4 5 5 5 4 5 5 5 6 7 8 9 9 11 9 7 7 7 7 8 8 8 8 7 6 6 6 6 5 5 5 5 5 5 5 5 5 5 6 6 7 6 6 6 7 7 6 6 6 6 6 8 8 12 15 17 14 15 13 12 9 9 10 11 11 8 8 7 10 12 13 13 14 13 13 9 9 13 13 14 16 12
6 6 5 5 4 3 3 3 3 4 5 6 7 7 8 9 7 4 6 7 7 7 7 8 7 6 6 6 5 5 5 5 6 5 5 5 6 5 5 6 6 6 6 7 7 7 7 7 7 7 8 8 8 8 9 12 12 14 16 16 15 17 15 10 10 10 10 9 8 8 9 12 13 13 13 11 11 10 8 12 15 16 17 14 9
6 6 5 4 2 2 3 3 3 5 6 6 6 7 8 8 4 5 6 7 6 7 7 6 6 5 5 4 4 5 5 5 5 5 6 6 6 5 6 5 5 6 5 6 6 6 6 6 6 6 7 7 7 8 8 11 15 16 15 14 14 13 13 12 10 9 7 9 11 13 12 15 14 14 14 14 12 13 17 17 17 17 14 8 8
5 6 6 5 2 2 4 6 6 5 5 5 5 7 7 3 2 4 4 5 6 6 6 4 4 4 4 3 4 4 4 4 5 5 5 5 5 6 6 6 5 5 5 5 5 5 6 6 6 6 7 7 7 7 8 9 10 11 10 8 6 7 10 11 13 11 8 8 10 12 15 15 15 15 12 10 9 11 15 17 19 18 11 9 7
5 4 5 6 4 3 6 6 5 5 5 4 5 5 5 4 4 3 4 4 4 4 4 3 4 3 3 3 4 3 3 3 3 3 3 3 5 5 5 5 5 5 5 5 5 5 6 6 7 7 7 8 7 7 8 9 9 8 7 5 2 3 6 7 6 7 5 1 1 1 2 8 11 16 13 12 12 12 11 9 8 7 8 8 8
3 4 5 5 5 4 5 5 5 4 4 4 5 4 3 4 3 3 3 4 5 4 5 4 4 3 3 3 3 4 4 4 3 3 5 5 5 3 5 5 6 6 6 6 5 6 6 6 7 8 8 8 8 7 8 8 9 9 10 8 4 3 4 4 6 6 4 7 8 7 7 5 6 5 4 4 4 6 6 7 7 6 6 6 6
5 5 4 4 1 3 4 4 4 3 4 4 5 4 4 4 4 5 6 8 7 6 6 6 6 6 5 4 5 4 5 6 6 5 4 4 6 6 6 5 4 3 3 4 5 5 4 4 5 6 8 9 8 8 9 10 11 11 10 11 8 6 5 4 5 7 7 6 7 7 6 5 3 3 6 2 3 6 4 4 7 6 6 7 7
3 4 4 2 4 4 4 4 2 3 4 4 5 4 3 3 4 5 5 4 3 4 4 4 4 4 4 5 5 6 6 6 6 6 6 5 4 6 6 5 5 7 8 7 3 3 5 6 6 6 5 7 8 10 14 19 19 18 17 16 14 10 6 4 6 11 7 6 6 7 5 6 5 5 3 2 1 3 2 3 3 5 6 6 6
5 5 6 4 3 2 3 3 1 1 4 3 4 3 3 3 3 2 2 2 1 3 4 4 4 5 5 6 5 6 5 5 5 5 5 6 7 5 7 9 8 8 8 8 8 10 11 10 8 7 9 13 15 15 15 15 16 16 16 15 11 9 5 8 10 8 3 5 6 7 6 5 5 7 7 7 3 5 3 3 3 4 5 5 6
Wind_Direction
148 141 146 148 139 132 140 141 142 131 140 156 161 165 165 168 159 165 162 151 145 145 149 151 147 133 128 166 179 171 174 179 177 179 180 173 168 157 145 135 144 138 130 128 134 134 128 133 126 120 120 117 138 157 158 132 118 124 122 113 122 110 45 36 84 108 106 77 73 74 53 27 37 34 329 335 73 106 131 136 117 93 87 100 123
136 131 133 132 131 142 148 149 143 141 156 159 164 165 168 166 162 157 149 153 150 153 153 152 154 165 160 177 157 152 155 164 184 187 176 166 155 146 140 139 144 143 130 125 136 138 142 143 136 137 125 118 129 143 131 127 120 123 130 93 53 121 128 181 193 103 41 136 123 86 26 354 350 1 357 346 15 87 113 84 55 103 109 110 111
145 137 144 149 152 155 158 163 158 151 157 162 161 159 160 163 154 147 157 151 155 154 148 156 163 158 151 155 142 142 181 172 160 154 141 139 150 149 143 143 148 148 145 141 142 146 143 140 140 143 144 138 119 131 132 132 139 142 149 137 110 52 96 85 244 53 150 118 99 96 102 48 335 359 334 351 4 35 92 88 104 111 114 115 100
152 153 158 163 161 158 164 161 148 143 151 154 160 165 162 160 156 160 165 160 163 161 167 143 145 160 128 136 140 143 164 153 113 118 120 123 134 139 136 146 156 160 153 146 143 144 149 146 139 142 154 149 141 144 150 149 146 144 129 142 134 123 122 199 3 320 135 138 119 137 172 124 69 310 339 309 343 161 110 121 160 101 99 86 80
151 158 159 162 160 164 171 162 148 149 157 160 164 168 165 164 166 168 169 173 170 160 157 140 141 117 97 105 104 79 65 98 104 98 117 125 120 132 156 151 152 149 139 132 133 142 143 146 145 148 147 147 137 144 158 165 169 158 150 149 161 146 164 148 304 337 108 197 138 110 72 74 199 201 102 359 355 45 335 163 124 108 115 103 89
155 160 162 164 165 160 159 149 146 155 162 166 164 164 159 164 169 167 168 167 170 159 151 149 155 146 145 142 137 138 136 134 141 152 144 143 162 150 136 153 147 131 121 118 125 137 150 159 156 151 151 158 150 149 139 130 154 166 178 163 149 180 147 141 133 356 84 61 146 174 165 168 158 171 93 129 12 31 31 102 105 111 115 98 91
158 150 156 161 165 158 156 155 154 161 170 158 155 161 165 163 166 171 166 172 168 161 155 151 150 164 161 151 150 149 144 170 162 154 152 164 137 144 154 148 146 136 132 134 140 147 153 162 164 150 159 163 153 142 150 162 175 183 151 154 171 150 139 146 160 173 30 339 2 289 69 92 139 137 153 141 89 3 21 63 60 70 97 100 96
160 156 161 164 162 161 159 157 156 163 162 157 157 161 166 164 162 170 171 170 170 160 163 162 159 163 154 146 146 143 149 159 161 171 159 145 133 141 138 150 147 145 148 149 146 149 159 168 167 158 159 174 156 159 156 157 153 151 157 150 143 161 164 152 162 164 156 226 343 357 48 69 85 92 118 143 134 119 88 39 51 35 65 71 100
153 150 157 165 168 167 160 154 149 153 162 164 165 166 165 164 167 169 174 175 175 161 163 158 157 154 147 140 128 135 137 142 148 133 124 122 114 115 130 151 151 160 152 151 157 165 157 172 178 177 168 178 173 151 146 156 161 157 155 146 158 133 142 144 143 167 153 176 120 40 68 69 73 95 123 95 130 124 106 121 111 38 62 49 81
147 152 162 169 173 172 164 144 147 159 164 158 157 163 166 164 171 170 176 180 164 146 143 139 142 137 136 141 135 134 125 124 125 125 121 120 122 134 136 128 128 98 91 122 141 149 161 177 186 193 183 173 168 167 166 160 159 163 165 166 155 150 150 146 156 153 155 164 154 155 117 103 96 95 78 98 55 50 141 154 150 132 109 24 98
155 163 169 163 152 145 154 154 148 145 152 156 157 164 169 170 167 170 165 152 153 155 147 151 149 152 142 145 138 136 138 138 132 125 118 112 128 141 134 137 133 135 130 128 128 139 131 150 172 185 172 170 163 167 184 187 170 166 160 148 159 158 164 144 129 150 141 159 159 158 154 159 165 160 165 159 138 125 100 107 109 116 127 118 79
148 151 148 138 137 147 146 134 144 147 147 153 154 162 172 171 165 159 152 148 148 159 144 160 151 150 142 141 142 146 146 146 144 150 153 145 148 149 139 110 114 124 126 118 109 109 117 118 114 103 114 136 155 160 165 173 167 156 156 162 166 156 157 160 157 160 162 165 171 180 168 150 148 143 166 152 143 149 136 145 140 134 77 85 114
143 147 143 144 146 152 153 143 144 152 159 156 160 166 169 167 166 161 160 155 165 164 163 165 152 151 148 143 141 144 144 142 144 149 159 150 152 146 138 128 128 113 122 115 96 105 112 102 101 111 110 120 128 127 140 149 154 145 143 155 156 156 175 167 168 179 164 165 176 165 159 162 168 161 132 125 110 129 134 126 145 101 123 117 130
139 142 143 141 147 150 147 145 150 161 165 165 164 167 170 168 169 165 160 155 159 159 161 157 155 153 149 144 146 148 150 149 152 151 155 145 150 152 150 148 143 145 149 136 149 121 108 117 114 105 116 126 125 128 135 140 130 121 119 129 147 174 176 164 161 150 149 157 145 147 174 174 157 141 132 126 134 126 134 137 134 51 91 129 132
122 137 139 139 136 142 149 152 154 164 169 165 167 170 166 168 164 158 147 150 152 158 156 155 156 149 147 142 145 151 153 150 149 143 144 142 153 146 148 147 140 163 141 146 126 109 121 111 107 108 121 120 117 114 117 116 117 107 113 122 115 130 131 126 136 142 150 154 143 160 170 178 159 145 137 155 151 157 151 154 138 123 74 78 118
131 125 113 123 130 140 149 151 155 161 166 163 167 169 169 167 158 155 155 151 147 143 153 153 149 144 143 144 151 147 138 132 129 128 137 144 151 145 148 144 133 118 109 109 108 116 113 97 75 91 114 115 110 113 111 111 108 108 103 105 105 122 121 112 128 128 136 137 143 137 111 128 143 155 163 164 172 158 145 150 150 146 143 141 93
124 121 126 132 132 135 145 147 150 149 154 167 172 173 166 158 155 151 148 144 143 145 146 143 138 139 150 145 143 142 142 148 150 149 139 133 134 141 141 145 124 124 122 114 110 96 104 100 87 93 105 111 104 103 107 108 107 108 114 110 112 92 103 116 124 116 127 124 121 132 130 132 134 149 170 171 150 130 149 168 175 153 156 139 152
111 115 114 119 124 128 134 143 149 156 160 167 169 162 160 161 159 152 150 149 147 140 137 142 142 144 143 144 144 140 138 136 136 134 125 119 118 119 123 123 142 143 125 123 115 111 98 90 95 96 104 102 112 112 114 116 109 103 108 102 119 116 99 90 106 115 122 118 126 113 112 88 109 132 152 149 143 152 160 176 195 177 155 153 158
98 112 121 120 127 130 136 144 149 154 160 156 126 144 150 149 146 147 149 150 150 147 142 137 142 138 135 135 131 123 124 126 122 123 126 127 134 138 136 136 121 113 111 112 110 105 98 90 98 103 108 113 113 119 119 119 119 115 114 113 113 106 106 110 129 118 137 114 100 87 79 84 87 110 118 127 131 146 169 170 167 142 184 146 143
79 77 93 107 113 120 129 136 140 144 142 115 58 102 144 147 141 132 116 126 142 145 146 145 147 129 119 114 117 123 128 128 132 130 129 134 139 137 130 125 141 119 117 123 123 125 115 106 99 113 117 118 119 127 126 126 121 125 130 114 118 111 112 121 116 102 113 99 97 90 85 105 105 99 103 115 126 137 153 162 161 157 149 142 127
85 80 89 99 104 108 116 119 110 97 86 77 71 331 237 167 154 148 150 153 152 150 145 143 132 125 125 126 129 125 117 114 114 122 124 128 130 130 133 136 115 124 127 129 136 136 128 126 123 126 135 138 128 133 133 126 122 128 127 128 127 119 122 129 117 91 87 96 99 104 102 105 126 109 127 129 127 137 132 137 145 139 140 158 133
81 73 72 75 85 92 93 92 94 97 106 128 166 197 180 180 168 152 157 125 106 72 98 133 127 130 129 127 122 115 112 110 114 117 121 130 136 137 136 125 132 151 138 144 147 147 135 135 134 129 141 144 143 145 148 128 126 128 135 137 134 122 124 136 121 115 91 96 112 109 106 95 97 102 99 109 133 130 123 118 136 145 149 164 159
81 80 87 100 95 92 95 107 108 105 104 124 154 168 165 158 122 107 121 48 45 54 21 7 85 125 128 125 123 123 122 122 120 126 131 139 140 138 142 138 145 155 158 151 160 154 152 142 138 136 140 150 156 157 158 137 143 146 153 161 150 138 143 144 136 136 130 125 106 114 122 111 97 79 70 73 78 94 107 118 128 133 144 164 188
74 73 75 83 93 89 89 92 104 110 94 70 44 72 89 129 134 116 107 94 86 84 77 58 24 19 15 98 129 136 133 136 135 142 142 146 144 144 145 142 156 151 163 181 157 154 150 153 162 159 172 165 160 167 170 159 157 161 162 173 165 156 157 157 151 154 153 139 136 122 129 115 101 91 90 95 102 108 103 106 114 131 146 167 170
62 63 68 70 67 70 77 81 82 91 81 93 95 11 332 16 36 104 117 120 126 123 114 106 105 97 64 18 2 19 131 141 140 145 147 148 148 146 149 157 156 166 172 171 162 147 152 165 175 189 195 181 186 178 169 173 170 175 174 175 177 171 170 167 165 166 165 151 149 143 152 124 113 110 109 108 118 110 120 115 120 140 147 152 151
50 53 59 64 70 74 74 76 82 88 101 102 97 73 25 34 69 84 110 124 131 127 129 124 123 118 116 113 97 14 354 359 142 154 156 157 153 150 156 169 168 172 177 176 153 171 171 185 193 195 190 195 202 181 171 180 183 182 181 179 181 182 176 171 171 172 168 164 157 161 161 142 131 132 146 144 131 130 125 124 131 138 133 115 126
53 51 50 50 47 45 44 54 78 92 102 106 105 103 95 74 63 65 72 99 135 134 126 127 130 130 135 142 153 160 174 185 211 148 64 156 154 158 159 174 186 169 177 192 156 172 199 179 195 192 187 187 202 195 181 177 173 179 185 178 183 180 176 174 176 176 181 177 165 169 174 164 157 155 154 158 151 144 138 139 145 147 151 125 116
53 51 48 49 47 43 46 39 40 60 71 72 73 81 103 120 120 122 133 137 127 118 119 125 130 130 133 137 145 171 180 173 158 140 172 227 187 170 184 179 162 174 186 204 177 178 193 182 183 192 194 180 187 199 195 187 173 175 177 180 179 173 179 187 183 190 183 182 184 184 181 182 165 164 155 163 150 157 148 156 176 144 143 127 136
58 55 49 42 43 42 42 41 43 45 47 50 50 42 48 72 92 90 55 58 77 84 67 89 99 110 126 133 138 144 141 281 158 151 163 210 206 193 194 188 185 190 199 202 196 171 164 179 189 189 190 194 185 198 197 187 184 189 183 179 182 177 182 185 191 205 207 193 189 187 182 184 180 175 172 165 170 156 151 165 208 159 145 136 137
59 56 52 51 50 46 39 41 38 40 46 50 49 43 40 50 52 58 58 40 59 75 110 101 99 107 106 88 75 61 62 68 92 100 142 199 177 156 149 183 199 197 197 194 183 182 171 174 179 198 195 193 205 200 207 198 184 184 193 191 183 186 177 176 177 186 201 205 187 187 195 188 185 174 170 164 154 154 166 166 179 179 161 152 162
56 52 49 53 50 43 43 41 39 38 39 43 48 66 73 75 76 74 77 71 76 66 66 73 76 76 84 93 99 101 93 68 84 97 92 85 69 52 55 71 43 156 204 224 177 171 182 196 178 179 195 208 209 212 210 203 198 190 187 192 189 194 180 175 179 178 186 196 200 193 187 188 178 161 149 144 142 137 128 136 145 159 167 167 160
49 43 39 43 41 35 31 29 29 34 34 36 40 56 65 68 74 79 84 89 85 81 76 74 80 84 82 76 66 58 62 58 54 58 72 68 39 52 62 7 3 42 27 108 146 203 185 186 183 182 193 206 217 224 214 206 201 199 192 192 193 187 191 193 186 188 189 184 189 189 197 179 176 171 149 130 100 87 106 118 125 125 116 90 168
57 38 35 41 44 38 32 23 26 21 23 19 27 52 54 55 62 65 73 72 73 73 71 66 62 60 56 55 59 70 65 49 38 24 14 35 80 66 23 29 353 334 8 62 71 67 54 109 156 182 213 224 223 232 221 220 215 204 200 190 197 188 189 202 197 194 190 188 186 185 194 208 193 166 151 150 140 115 82 98 110 105 88 111 113
69 56 27 44 50 43 31 23 19 18 18 16 26 43 50 51 57 56 61 63 68 65 64 60 54 51 48 47 48 49 52 51 51 56 67 64 70 81 82 71 42 292 336 335 18 79 54 18 360 211 233 247 245 266 234 218 225 231 226 207 195 196 197 198 197 192 189 191 189 187 192 201 202 176 166 164 154 153 146 128 125 131 140 51 84
65 63 51 45 52 46 40 30 22 20 18 23 32 29 45 48 45 52 47 55 56 57 54 51 50 46 44 43 47 47 41 37 39 41 40 41 42 58 86 121 251 326 345 314 325 313 60 41 346 326 318 293 278 247 219 226 224 222 231 246 266 240 210 205 205 196 192 192 192 194 192 196 189 188 190 177 167 166 157 157 157 174 154 62 12
77 77 63 65 61 64 59 50 12 17 17 31 33 18 54 53 49 51 46 43 47 52 49 46 48 46 46 43 46 46 42 35 33 33 36 31 25 27 20 4 8 349 332 315 299 215 211 217 228 242 256 258 269 274 238 226 223 225 210 206 228 239 233 226 213 204 201 200 196 192 192 198 194 194 203 189 180 163 164 166 170 164 96 43 29
71 73 78 75 79 85 87 119 102 76 38 20 14 33 55 58 52 48 50 40 42 45 42 44 47 43 45 46 43 45 43 34 30 32 30 25 22 12 8 4 9 358 353 352 338 325 288 235 229 224 232 256 261 256 238 224 218 216 202 214 211 215 217 220 219 214 207 201 199 196 195 199 200 205 204 191 178 162 169 171 167 148 129 127 54
92 66 81 79 73 37 20 56 78 72 50 27 33 58 64 58 52 49 50 37 38 37 36 40 42 41 40 42 47 53 48 35 31 32 24 21 20 14 13 4 11 357 353 341 330 333 332 328 278 258 254 255 261 258 240 232 219 210 201 195 212 211 222 218 223 217 214 220 210 204 199 199 206 213 185 182 184 171 173 175 156 153 155 153 179
128 121 95 59 6 342 352 47 59 60 46 50 53 58 62 59 55 62 65 60 53 37 28 31 30 31 36 37 34 35 35 27 26 21 24 20 12 5 351 3 9 6 347 325 328 330 328 320 287 266 269 264 269 277 263 243 237 221 212 218 208 204 201 219 209 217 218 219 233 216 207 218 218 183 177 194 190 188 181 178 176 161 171 181 181
133 144 170 168 142 85 51 43 43 43 47 59 70 66 65 63 60 59 61 61 56 62 58 53 38 27 22 22 25 27 21 19 12 5 5 5 1 7 3 0 356 357 347 346 341 345 338 327 314 283 270 249 261 272 274 262 237 227 219 216 207 198 212 220 220 214 212 217 206 205 207 208 209 193 200 194 193 187 180 180 168 173 161 179 162
53 43 51 71 56 60 62 58 54 43 39 39 51 62 66 72 70 61 54 37 25 29 34 41 43 43 37 28 25 25 21 17 13 5 356 358 2 357 352 357 350 345 350 348 347 341 340 334 332 331 319 302 282 284 290 285 275 252 227 211 215 215 218 213 217 217 220 223 216 214 216 213 198 195 197 195 191 193 184 173 177 171 172 156 145
50 46 49 57 52 44 38 31 24 30 34 42 48 50 43 39 48 45 31 31 40 45 50 48 45 41 37 36 31 25 30 25 18 15 11 2 349 345 346 344 342 344 345 340 337 341 346 346 347 348 352 342 328 322 305 307 303 292 271 219 222 227 216 209 215 221 226 231 222 212 212 206 191 184 187 188 183 185 179 163 175 159 147 146 160
43 37 22 53 70 57 44 37 18 13 14 23 36 37 36 35 39 33 41 49 51 50 51 50 45 38 29 27 24 26 24 20 19 16 22 11 355 356 348 352 358 358 355 347 344 351 356 351 348 345 343 339 338 340 333 320 306 296 285 261 231 235 227 214 213 220 220 223 218 211 211 192 185 180 181 182 181 178 168 165 166 157 157 155 150
54 53 38 37 69 68 44 17 14 24 22 26 38 44 50 52 40 27 47 47 46 43 45 44 39 33 28 22 20 17 16 15 15 15 17 14 1 358 360 4 4 8 3 359 348 352 353 351 345 334 335 333 332 333 328 323 315 305 295 280 256 239 234 218 220 224 223 212 197 202 193 182 178 176 171 166 164 164 164 160 153 149 146 149 148
53 30 24 38 51 108 59 24 5 12 23 45 59 65 56 52 14 35 47 48 46 44 46 40 31 25 20 16 21 19 16 15 14 18 14 5 358 357 1 355 7 5 3 359 341 345 344 331 331 326 319 319 322 325 321 319 316 317 310 293 274 262 254 250 248 248 223 207 201 189 170 171 171 159 150 142 145 154 157 155 152 150 149 140 146
42 25 19 19 9 62 55 44 31 50 60 53 58 76 76 70 36 52 53 56 50 46 43 34 25 21 10 16 33 19 16 18 19 16 15 6 1 354 356 348 359 354 355 352 342 346 340 336 329 323 320 314 316 316 313 311 315 314 319 333 324 278 256 236 236 259 265 219 188 178 174 169 162 154 148 153 150 154 153 152 151 150 153 161 158
60 29 29 13 11 37 52 63 51 18 43 54 70 82 110 121 94 93 83 79 71 68 59 44 31 15 28 37 37 22 16 17 18 8 8 4 348 350 349 345 346 344 343 344 345 345 339 336 332 327 320 317 313 317 312 309 306 309 307 317 327 253 239 237 237 243 249 180 131 133 214 192 176 174 165 154 143 145 141 144 155 162 153 153 157
59 21 33 21 27 56 68 65 42 12 21 41 54 62 82 86 82 82 81 68 52 41 35 25 23 22 29 24 24 10 11 356 355 360 353 340 334 335 344 333 333 332 335 334 336 336 331 329 328 324 319 317 316 315 311 306 308 312 309 304 278 244 231 212 225 230 137 138 139 114 89 19 3 17 57 113 126 141 145 145 148 148 138 127 118
32 22 30 360 9 78 78 68 52 32 39 29 35 43 57 66 55 47 39 39 27 18 16 7 3 359 357 358 1 356 345 346 339 341 329 315 313 324 319 310 298 287 301 301 308 298 292 300 305 306 311 308 309 309 299 294 293 293 293 296 297 271 252 224 217 156 117 115 123 123 101 90 67 18 340 320 153 136 143 147 136 127 127 128 131
8 27 22 51 99 113 93 88 69 53 47 20 19 34 47 60 61 52 56 55 28 11 358 346 345 351 339 343 340 338 339 338 332 325 325 321 293 287 290 295 300 305 309 303 273 268 286 295 298 282 258 268 284 283 289 296 295 296 294 284 269 265 258 221 152 151 141 138 153 152 150 147 140 110 89 349 353 46 69 79 64 92 106 107 109
2 31 30 28 23 56 94 82 112 97 51 15 28 42 67 52 76 109 114 119 68 345 329 319 326 328 321 316 325 328 322 322 321 321 322 317 315 309 288 287 282 285 293 300 311 305 300 292 285 293 292 282 281 284 287 288 291 293 288 284 272 250 198 148 144 127 100 137 147 144 145 132 129 134 135 132 131 117 110 111 99 87 86 108 110